Year,Month,Day,Hour,Minute,Value (Times are PST for temperature in C)
2016,07,10,00,00,11.60
2016,07,10,00,01,11.50
2016,07,10,00,02,11.50
2016,07,10,00,03,11.50
2016,07,10,00,04,11.50
2016,07,10,00,05,11.50
2016,07,10,00,06,11.50
2016,07,10,00,07,11.50
2016,07,10,00,08,11.50
2016,07,10,00,09,11.50
2016,07,10,00,10,11.50
2016,07,10,00,11,11.40
2016,07,10,00,12,11.40
2016,07,10,00,13,11.40
2016,07,10,00,14,11.40
2016,07,10,00,15,11.40
2016,07,10,00,16,11.40
2016,07,10,00,17,11.30
2016,07,10,00,18,11.30
2016,07,10,00,19,11.30
2016,07,10,00,20,11.30
2016,07,10,00,21,11.30
2016,07,10,00,22,11.30
2016,07,10,00,23,11.30
2016,07,10,00,24,11.30
2016,07,10,00,25,11.30
2016,07,10,00,26,11.20
2016,07,10,00,27,11.20
2016,07,10,00,28,11.20
2016,07,10,00,29,11.20
2016,07,10,00,30,11.20
2016,07,10,00,31,11.20
2016,07,10,00,32,11.20
2016,07,10,00,33,11.20
2016,07,10,00,34,11.20
2016,07,10,00,35,11.20
2016,07,10,00,36,11.20
2016,07,10,00,37,11.20
2016,07,10,00,38,11.20
2016,07,10,00,39,11.20
2016,07,10,00,40,11.10
2016,07,10,00,41,11.10
2016,07,10,00,42,11.10
2016,07,10,00,43,11.10
2016,07,10,00,44,11.10
2016,07,10,00,45,11.10
2016,07,10,00,46,11.10
2016,07,10,00,47,11.10
2016,07,10,00,48,11.10
2016,07,10,00,49,11.10
2016,07,10,00,50,11.10
2016,07,10,00,51,11.00
2016,07,10,00,52,11.00
2016,07,10,00,53,11.00
2016,07,10,00,54,11.00
2016,07,10,00,55,11.00
2016,07,10,00,56,11.00
2016,07,10,00,57,11.00
2016,07,10,00,58,11.00
2016,07,10,00,59,10.90
2016,07,10,01,00,10.90
2016,07,10,01,01,10.90
2016,07,10,01,02,10.90
2016,07,10,01,03,10.80
2016,07,10,01,04,10.80
2016,07,10,01,05,10.80
2016,07,10,01,06,10.80
2016,07,10,01,07,10.80
2016,07,10,01,08,10.80
2016,07,10,01,09,10.80
2016,07,10,01,10,10.70
2016,07,10,01,11,10.70
2016,07,10,01,12,10.70
2016,07,10,01,13,10.70
2016,07,10,01,14,10.70
2016,07,10,01,15,10.70
2016,07,10,01,16,10.70
2016,07,10,01,17,10.70
2016,07,10,01,18,10.70
2016,07,10,01,19,10.70
2016,07,10,01,20,10.70
2016,07,10,01,21,10.70
2016,07,10,01,22,10.60
2016,07,10,01,23,10.60
2016,07,10,01,24,10.60
2016,07,10,01,25,10.60
2016,07,10,01,26,10.60
2016,07,10,01,27,10.60
2016,07,10,01,28,10.60
2016,07,10,01,29,10.60
2016,07,10,01,30,10.60
2016,07,10,01,31,10.60
2016,07,10,01,32,10.50
2016,07,10,01,33,10.50
2016,07,10,01,34,10.50
2016,07,10,01,35,10.50
2016,07,10,01,36,10.50
2016,07,10,01,37,10.50
2016,07,10,01,38,10.50
2016,07,10,01,39,10.50
2016,07,10,01,40,10.40
2016,07,10,01,41,10.50
2016,07,10,01,42,10.40
2016,07,10,01,43,10.40
2016,07,10,01,44,10.40
2016,07,10,01,45,10.40
2016,07,10,01,46,10.40
2016,07,10,01,47,10.40
2016,07,10,01,48,10.40
2016,07,10,01,49,10.40
2016,07,10,01,50,10.40
2016,07,10,01,51,10.40
2016,07,10,01,52,10.40
2016,07,10,01,53,10.40
2016,07,10,01,54,10.40
2016,07,10,01,55,10.40
2016,07,10,01,56,10.40
2016,07,10,01,57,10.40
2016,07,10,01,58,10.40
2016,07,10,01,59,10.40
2016,07,10,02,00,10.40
2016,07,10,02,01,10.40
2016,07,10,02,02,10.40
2016,07,10,02,03,10.40
2016,07,10,02,04,10.40
2016,07,10,02,05,10.40
2016,07,10,02,06,10.40
2016,07,10,02,07,10.40
2016,07,10,02,08,10.40
2016,07,10,02,09,10.40
2016,07,10,02,10,10.30
2016,07,10,02,11,10.30
2016,07,10,02,12,10.30
2016,07,10,02,13,10.30
2016,07,10,02,14,10.30
2016,07,10,02,15,10.30
2016,07,10,02,16,10.30
2016,07,10,02,17,10.30
2016,07,10,02,18,10.30
2016,07,10,02,19,10.30
2016,07,10,02,20,10.30
2016,07,10,02,21,10.30
2016,07,10,02,22,10.30
2016,07,10,02,23,10.30
2016,07,10,02,24,10.30
2016,07,10,02,25,10.30
2016,07,10,02,26,10.30
2016,07,10,02,27,10.30
2016,07,10,02,28,10.30
2016,07,10,02,29,10.30
2016,07,10,02,30,10.30
2016,07,10,02,31,10.30
2016,07,10,02,32,10.30
2016,07,10,02,33,10.30
2016,07,10,02,34,10.30
2016,07,10,02,35,10.30
2016,07,10,02,36,10.30
2016,07,10,02,37,10.30
2016,07,10,02,38,10.30
2016,07,10,02,39,10.30
2016,07,10,02,40,10.30
2016,07,10,02,41,10.30
2016,07,10,02,42,10.30
2016,07,10,02,43,10.30
2016,07,10,02,44,10.30
2016,07,10,02,45,10.30
2016,07,10,02,46,10.30
2016,07,10,02,47,10.20
2016,07,10,02,48,10.20
2016,07,10,02,49,10.20
2016,07,10,02,50,10.20
2016,07,10,02,51,10.20
2016,07,10,02,52,10.20
2016,07,10,02,53,10.20
2016,07,10,02,54,10.20
2016,07,10,02,55,10.20
2016,07,10,02,56,10.20
2016,07,10,02,57,10.20
2016,07,10,02,58,10.20
2016,07,10,02,59,10.20
2016,07,10,03,00,10.10
2016,07,10,03,01,10.10
2016,07,10,03,02,10.10
2016,07,10,03,03,10.10
2016,07,10,03,04,10.10
2016,07,10,03,05,10.10
2016,07,10,03,06,10.00
2016,07,10,03,07,10.00
2016,07,10,03,08,10.00
2016,07,10,03,09,10.00
2016,07,10,03,10,9.90
2016,07,10,03,11,9.90
2016,07,10,03,12,9.90
2016,07,10,03,13,9.90
2016,07,10,03,14,9.90
2016,07,10,03,15,9.90
2016,07,10,03,16,9.90
2016,07,10,03,17,9.80
2016,07,10,03,18,9.80
2016,07,10,03,19,9.80
2016,07,10,03,20,9.80
2016,07,10,03,21,9.80
2016,07,10,03,22,9.80
2016,07,10,03,23,9.80
2016,07,10,03,24,9.80
2016,07,10,03,25,9.80
2016,07,10,03,26,9.70
2016,07,10,03,27,9.70
2016,07,10,03,28,9.70
2016,07,10,03,29,9.70
2016,07,10,03,30,9.70
2016,07,10,03,31,9.70
2016,07,10,03,32,9.70
2016,07,10,03,33,9.70
2016,07,10,03,34,9.70
2016,07,10,03,35,9.70
2016,07,10,03,36,9.70
2016,07,10,03,37,9.70
2016,07,10,03,38,9.70
2016,07,10,03,39,9.70
2016,07,10,03,40,9.70
2016,07,10,03,41,9.70
2016,07,10,03,42,9.70
2016,07,10,03,43,9.70
2016,07,10,03,44,9.70
2016,07,10,03,45,9.60
2016,07,10,03,46,9.60
2016,07,10,03,47,9.60
2016,07,10,03,48,9.60
2016,07,10,03,49,9.60
2016,07,10,03,50,9.60
2016,07,10,03,51,9.50
2016,07,10,03,52,9.50
2016,07,10,03,53,9.50
2016,07,10,03,54,9.50
2016,07,10,03,55,9.40
2016,07,10,03,56,9.40
2016,07,10,03,57,9.40
2016,07,10,03,58,9.40
2016,07,10,03,59,9.40
2016,07,10,04,00,9.40
2016,07,10,04,01,9.40
2016,07,10,04,02,9.40
2016,07,10,04,03,9.40
2016,07,10,04,04,9.30
2016,07,10,04,05,9.30
2016,07,10,04,06,9.30
2016,07,10,04,07,9.30
2016,07,10,04,08,9.30
2016,07,10,04,09,9.30
2016,07,10,04,10,9.30
2016,07,10,04,11,9.30
2016,07,10,04,12,9.30
2016,07,10,04,13,9.30
2016,07,10,04,14,9.30
2016,07,10,04,15,9.30
2016,07,10,04,16,9.20
2016,07,10,04,17,9.20
2016,07,10,04,18,9.20
2016,07,10,04,19,9.20
2016,07,10,04,20,9.20
2016,07,10,04,21,9.20
2016,07,10,04,22,9.20
2016,07,10,04,23,9.20
2016,07,10,04,24,9.20
2016,07,10,04,25,9.20
2016,07,10,04,26,9.20
2016,07,10,04,27,9.20
2016,07,10,04,28,9.10
2016,07,10,04,29,9.10
2016,07,10,04,30,9.10
2016,07,10,04,31,9.10
2016,07,10,04,32,9.10
2016,07,10,04,33,9.10
2016,07,10,04,34,9.10
2016,07,10,04,35,9.10
2016,07,10,04,36,9.10
2016,07,10,04,37,9.10
2016,07,10,04,38,9.10
2016,07,10,04,39,9.00
2016,07,10,04,40,9.00
2016,07,10,04,41,9.00
2016,07,10,04,42,9.00
2016,07,10,04,43,9.00
2016,07,10,04,44,9.00
2016,07,10,04,45,9.00
2016,07,10,04,46,9.00
2016,07,10,04,47,8.90
2016,07,10,04,48,8.90
2016,07,10,04,49,8.90
2016,07,10,04,50,8.90
2016,07,10,04,51,8.90
2016,07,10,04,52,8.90
2016,07,10,04,53,8.90
2016,07,10,04,54,8.80
2016,07,10,04,55,8.80
2016,07,10,04,56,8.80
2016,07,10,04,57,8.80
2016,07,10,04,58,8.80
2016,07,10,04,59,8.80
2016,07,10,05,00,8.80
2016,07,10,05,01,8.80
2016,07,10,05,02,8.80
2016,07,10,05,03,8.80
2016,07,10,05,04,8.80
2016,07,10,05,05,8.80
2016,07,10,05,06,8.80
2016,07,10,05,07,8.70
2016,07,10,05,08,8.70
2016,07,10,05,09,8.70
2016,07,10,05,10,8.70
2016,07,10,05,11,8.70
2016,07,10,05,12,8.70
2016,07,10,05,13,8.70
2016,07,10,05,14,8.70
2016,07,10,05,15,8.70
2016,07,10,05,16,8.70
2016,07,10,05,17,8.70
2016,07,10,05,18,8.70
2016,07,10,05,19,8.70
2016,07,10,05,20,8.70
2016,07,10,05,21,8.70
2016,07,10,05,22,8.70
2016,07,10,05,23,8.70
2016,07,10,05,24,8.70
2016,07,10,05,25,8.70
2016,07,10,05,26,8.70
2016,07,10,05,27,8.70
2016,07,10,05,28,8.70
2016,07,10,05,29,8.70
2016,07,10,05,30,8.70
2016,07,10,05,31,8.70
2016,07,10,05,32,8.70
2016,07,10,05,33,8.70
2016,07,10,05,34,8.70
2016,07,10,05,35,8.70
2016,07,10,05,36,8.70
2016,07,10,05,37,8.60
2016,07,10,05,38,8.70
2016,07,10,05,39,8.60
2016,07,10,05,40,8.60
2016,07,10,05,41,8.60
2016,07,10,05,42,8.60
2016,07,10,05,43,8.60
2016,07,10,05,44,8.60
2016,07,10,05,45,8.60
2016,07,10,05,46,8.60
2016,07,10,05,47,8.60
2016,07,10,05,48,8.60
2016,07,10,05,49,8.70
2016,07,10,05,50,8.70
2016,07,10,05,51,8.70
2016,07,10,05,52,8.70
2016,07,10,05,53,8.70
2016,07,10,05,54,8.70
2016,07,10,05,55,8.70
2016,07,10,05,56,8.70
2016,07,10,05,57,8.70
2016,07,10,05,58,8.70
2016,07,10,05,59,8.70
2016,07,10,06,00,8.70
2016,07,10,06,01,8.70
2016,07,10,06,02,8.70
2016,07,10,06,03,8.70
2016,07,10,06,04,8.70
2016,07,10,06,05,8.70
2016,07,10,06,06,8.70
2016,07,10,06,07,8.70
2016,07,10,06,08,8.70
2016,07,10,06,09,8.70
2016,07,10,06,10,8.70
2016,07,10,06,11,8.70
2016,07,10,06,12,8.70
2016,07,10,06,13,8.70
2016,07,10,06,14,8.80
2016,07,10,06,15,8.80
2016,07,10,06,16,8.80
2016,07,10,06,17,8.80
2016,07,10,06,18,8.80
2016,07,10,06,19,8.90
2016,07,10,06,20,8.90
2016,07,10,06,21,8.90
2016,07,10,06,22,9.00
2016,07,10,06,23,9.00
2016,07,10,06,24,9.00
2016,07,10,06,25,9.10
2016,07,10,06,26,9.10
2016,07,10,06,27,9.20
2016,07,10,06,28,9.20
2016,07,10,06,29,9.20
2016,07,10,06,30,9.30
2016,07,10,06,31,9.30
2016,07,10,06,32,9.30
2016,07,10,06,33,9.40
2016,07,10,06,34,9.40
2016,07,10,06,35,9.50
2016,07,10,06,36,9.50
2016,07,10,06,37,9.60
2016,07,10,06,38,9.60
2016,07,10,06,39,9.60
2016,07,10,06,40,9.70
2016,07,10,06,41,9.70
2016,07,10,06,42,9.70
2016,07,10,06,43,9.80
2016,07,10,06,44,9.80
2016,07,10,06,45,9.80
2016,07,10,06,46,9.90
2016,07,10,06,47,9.90
2016,07,10,06,48,9.90
2016,07,10,06,49,10.00
2016,07,10,06,50,10.10
2016,07,10,06,51,10.10
2016,07,10,06,52,10.20
2016,07,10,06,53,10.20
2016,07,10,06,54,10.30
2016,07,10,06,55,10.40
2016,07,10,06,56,10.50
2016,07,10,06,57,10.50
2016,07,10,06,58,10.60
2016,07,10,06,59,10.60
2016,07,10,07,00,10.70
2016,07,10,07,01,10.80
2016,07,10,07,02,10.80
2016,07,10,07,03,10.90
2016,07,10,07,04,10.90
2016,07,10,07,05,11.00
2016,07,10,07,06,11.10
2016,07,10,07,07,11.10
2016,07,10,07,08,11.20
2016,07,10,07,09,11.30
2016,07,10,07,10,11.40
2016,07,10,07,11,11.50
2016,07,10,07,12,11.60
2016,07,10,07,13,11.70
2016,07,10,07,14,11.80
2016,07,10,07,15,11.90
2016,07,10,07,16,11.90
2016,07,10,07,17,12.10
2016,07,10,07,18,12.10
2016,07,10,07,19,12.20
2016,07,10,07,20,12.20
2016,07,10,07,21,12.30
2016,07,10,07,22,12.30
2016,07,10,07,23,12.40
2016,07,10,07,24,12.50
2016,07,10,07,25,12.50
2016,07,10,07,26,12.60
2016,07,10,07,27,12.70
2016,07,10,07,28,12.80
2016,07,10,07,29,12.80
2016,07,10,07,30,12.90
2016,07,10,07,31,13.00
2016,07,10,07,32,13.10
2016,07,10,07,33,13.10
2016,07,10,07,34,13.20
2016,07,10,07,35,13.20
2016,07,10,07,36,13.30
2016,07,10,07,37,13.30
2016,07,10,07,38,13.40
2016,07,10,07,39,13.50
2016,07,10,07,40,13.50
2016,07,10,07,41,13.60
2016,07,10,07,42,13.60
2016,07,10,07,43,13.60
2016,07,10,07,44,13.70
2016,07,10,07,45,13.80
2016,07,10,07,46,13.90
2016,07,10,07,47,13.90
2016,07,10,07,48,14.00
2016,07,10,07,49,14.10
2016,07,10,07,50,14.10
2016,07,10,07,51,14.10
2016,07,10,07,52,14.20
2016,07,10,07,53,14.20
2016,07,10,07,54,14.30
2016,07,10,07,55,14.30
2016,07,10,07,56,14.40
2016,07,10,07,57,14.50
2016,07,10,07,58,14.60
2016,07,10,07,59,14.60
2016,07,10,08,00,14.70
2016,07,10,08,01,14.80
2016,07,10,08,02,14.80
2016,07,10,08,03,14.80
2016,07,10,08,04,14.90
2016,07,10,08,05,14.90
2016,07,10,08,06,14.90
2016,07,10,08,07,15.00
2016,07,10,08,08,15.00
2016,07,10,08,09,15.10
2016,07,10,08,10,15.10
2016,07,10,08,11,15.20
2016,07,10,08,12,15.20
2016,07,10,08,13,15.30
2016,07,10,08,14,15.30
2016,07,10,08,15,15.30
2016,07,10,08,16,15.30
2016,07,10,08,17,15.40
2016,07,10,08,18,15.40
2016,07,10,08,19,15.50
2016,07,10,08,20,15.50
2016,07,10,08,21,15.60
2016,07,10,08,22,15.60
2016,07,10,08,23,15.60
2016,07,10,08,24,15.60
2016,07,10,08,25,15.70
2016,07,10,08,26,15.70
2016,07,10,08,27,15.70
2016,07,10,08,28,15.70
2016,07,10,08,29,15.70
2016,07,10,08,30,15.70
2016,07,10,08,31,15.70
2016,07,10,08,32,15.70
2016,07,10,08,33,15.70
2016,07,10,08,34,15.70
2016,07,10,08,35,15.80
2016,07,10,08,36,15.80
2016,07,10,08,37,15.90
2016,07,10,08,38,16.00
2016,07,10,08,39,16.10
2016,07,10,08,40,16.10
2016,07,10,08,41,16.20
2016,07,10,08,42,16.20
2016,07,10,08,43,16.30
2016,07,10,08,44,16.30
2016,07,10,08,45,16.30
2016,07,10,08,46,16.30
2016,07,10,08,47,16.30
2016,07,10,08,48,16.30
2016,07,10,08,49,16.20
2016,07,10,08,50,16.20
2016,07,10,08,51,16.10
2016,07,10,08,52,16.00
2016,07,10,08,53,16.00
2016,07,10,08,54,16.10
2016,07,10,08,55,16.10
2016,07,10,08,56,16.20
2016,07,10,08,57,16.30
2016,07,10,08,58,16.40
2016,07,10,08,59,16.40
2016,07,10,09,00,16.40
2016,07,10,09,01,16.40
2016,07,10,09,02,16.40
2016,07,10,09,03,16.40
2016,07,10,09,04,16.40
2016,07,10,09,05,16.40
2016,07,10,09,06,16.40
2016,07,10,09,07,16.50
2016,07,10,09,08,16.70
2016,07,10,09,09,16.70
2016,07,10,09,10,16.70
2016,07,10,09,11,16.80
2016,07,10,09,12,16.80
2016,07,10,09,13,16.80
2016,07,10,09,14,16.90
2016,07,10,09,15,16.90
2016,07,10,09,16,16.90
2016,07,10,09,17,16.90
2016,07,10,09,18,17.00
2016,07,10,09,19,17.00
2016,07,10,09,20,17.00
2016,07,10,09,21,17.00
2016,07,10,09,22,17.00
2016,07,10,09,23,17.00
2016,07,10,09,24,17.10
2016,07,10,09,25,17.10
2016,07,10,09,26,17.10
2016,07,10,09,27,17.00
2016,07,10,09,28,16.90
2016,07,10,09,29,16.90
2016,07,10,09,30,16.90
2016,07,10,09,31,16.90
2016,07,10,09,32,16.90
2016,07,10,09,33,16.90
2016,07,10,09,34,16.90
2016,07,10,09,35,16.80
2016,07,10,09,36,16.80
2016,07,10,09,37,16.80
2016,07,10,09,38,16.80
2016,07,10,09,39,16.80
2016,07,10,09,40,16.90
2016,07,10,09,41,17.00
2016,07,10,09,42,17.00
2016,07,10,09,43,17.10
2016,07,10,09,44,17.10
2016,07,10,09,45,17.10
2016,07,10,09,46,17.10
2016,07,10,09,47,17.00
2016,07,10,09,48,17.00
2016,07,10,09,49,17.00
2016,07,10,09,50,17.10
2016,07,10,09,51,17.10
2016,07,10,09,52,17.10
2016,07,10,09,53,17.10
2016,07,10,09,54,17.10
2016,07,10,09,55,17.10
2016,07,10,09,56,17.00
2016,07,10,09,57,17.00
2016,07,10,09,58,16.90
2016,07,10,09,59,16.90
2016,07,10,10,00,16.90
2016,07,10,10,01,16.90
2016,07,10,10,02,16.80
2016,07,10,10,03,16.90
2016,07,10,10,04,17.00
2016,07,10,10,05,17.10
2016,07,10,10,06,17.30
2016,07,10,10,07,17.40
2016,07,10,10,08,17.60
2016,07,10,10,09,17.80
2016,07,10,10,10,17.90
2016,07,10,10,11,17.90
2016,07,10,10,12,17.90
2016,07,10,10,13,17.80
2016,07,10,10,14,17.40
2016,07,10,10,15,17.10
2016,07,10,10,16,16.90
2016,07,10,10,17,16.60
2016,07,10,10,18,16.40
2016,07,10,10,19,16.30
2016,07,10,10,20,16.20
2016,07,10,10,21,16.10
2016,07,10,10,22,16.10
2016,07,10,10,23,16.10
2016,07,10,10,24,16.10
2016,07,10,10,25,16.10
2016,07,10,10,26,16.10
2016,07,10,10,27,16.20
2016,07,10,10,28,16.20
2016,07,10,10,29,16.30
2016,07,10,10,30,16.40
2016,07,10,10,31,16.50
2016,07,10,10,32,16.60
2016,07,10,10,33,16.70
2016,07,10,10,34,16.90
2016,07,10,10,35,17.00
2016,07,10,10,36,17.00
2016,07,10,10,37,17.10
2016,07,10,10,38,17.10
2016,07,10,10,39,17.20
2016,07,10,10,40,17.30
2016,07,10,10,41,17.30
2016,07,10,10,42,17.50
2016,07,10,10,43,17.60
2016,07,10,10,44,17.70
2016,07,10,10,45,17.70
2016,07,10,10,46,17.70
2016,07,10,10,47,17.70
2016,07,10,10,48,17.70
2016,07,10,10,49,17.70
2016,07,10,10,50,17.80
2016,07,10,10,51,17.80
2016,07,10,10,52,17.80
2016,07,10,10,53,17.90
2016,07,10,10,54,18.00
2016,07,10,10,55,18.10
2016,07,10,10,56,18.10
2016,07,10,10,57,18.10
2016,07,10,10,58,18.10
2016,07,10,10,59,18.10
2016,07,10,11,00,18.10
2016,07,10,11,01,18.10
2016,07,10,11,02,18.10
2016,07,10,11,03,18.10
2016,07,10,11,04,18.10
2016,07,10,11,05,18.20
2016,07,10,11,06,18.20
2016,07,10,11,07,18.20
2016,07,10,11,08,18.10
2016,07,10,11,09,18.10
2016,07,10,11,10,18.10
2016,07,10,11,11,18.00
2016,07,10,11,12,17.90
2016,07,10,11,13,18.00
2016,07,10,11,14,18.10
2016,07,10,11,15,18.20
2016,07,10,11,16,18.20
2016,07,10,11,17,18.20
2016,07,10,11,18,18.10
2016,07,10,11,19,18.10
2016,07,10,11,20,18.00
2016,07,10,11,21,18.00
2016,07,10,11,22,18.00
2016,07,10,11,23,18.10
2016,07,10,11,24,18.20
2016,07,10,11,25,18.10
2016,07,10,11,26,17.90
2016,07,10,11,27,17.60
2016,07,10,11,28,17.40
2016,07,10,11,29,17.20
2016,07,10,11,30,17.00
2016,07,10,11,31,16.90
2016,07,10,11,32,16.80
2016,07,10,11,33,16.90
2016,07,10,11,34,17.00
2016,07,10,11,35,17.10
2016,07,10,11,36,17.20
2016,07,10,11,37,17.40
2016,07,10,11,38,17.50
2016,07,10,11,39,17.60
2016,07,10,11,40,17.50
2016,07,10,11,41,17.40
2016,07,10,11,42,17.40
2016,07,10,11,43,17.30
2016,07,10,11,44,17.20
2016,07,10,11,45,17.10
2016,07,10,11,46,17.00
2016,07,10,11,47,17.00
2016,07,10,11,48,17.00
2016,07,10,11,49,17.00
2016,07,10,11,50,17.10
2016,07,10,11,51,17.10
2016,07,10,11,52,17.10
2016,07,10,11,53,17.10
2016,07,10,11,54,17.00
2016,07,10,11,55,16.90
2016,07,10,11,56,16.90
2016,07,10,11,57,17.00
2016,07,10,11,58,17.10
2016,07,10,11,59,17.20
2016,07,10,12,00,17.20
2016,07,10,12,01,17.20
2016,07,10,12,02,17.30
2016,07,10,12,03,17.40
2016,07,10,12,04,17.50
2016,07,10,12,05,17.60
2016,07,10,12,06,17.70
2016,07,10,12,07,17.80
2016,07,10,12,08,17.80
2016,07,10,12,09,17.80
2016,07,10,12,10,17.80
2016,07,10,12,11,17.60
2016,07,10,12,12,17.50
2016,07,10,12,13,17.40
2016,07,10,12,14,17.40
2016,07,10,12,15,17.40
2016,07,10,12,16,17.50
2016,07,10,12,17,17.60
2016,07,10,12,18,17.60
2016,07,10,12,19,17.70
2016,07,10,12,20,17.70
2016,07,10,12,21,17.70
2016,07,10,12,22,17.80
2016,07,10,12,23,17.90
2016,07,10,12,24,18.10
2016,07,10,12,25,18.20
2016,07,10,12,26,18.30
2016,07,10,12,27,18.40
2016,07,10,12,28,18.40
2016,07,10,12,29,18.30
2016,07,10,12,30,18.30
2016,07,10,12,31,18.30
2016,07,10,12,32,18.20
2016,07,10,12,33,18.20
2016,07,10,12,34,18.20
2016,07,10,12,35,18.10
2016,07,10,12,36,18.10
2016,07,10,12,37,18.10
2016,07,10,12,38,18.10
2016,07,10,12,39,18.10
2016,07,10,12,40,18.10
2016,07,10,12,41,18.00
2016,07,10,12,42,18.00
2016,07,10,12,43,18.00
2016,07,10,12,44,18.00
2016,07,10,12,45,18.00
2016,07,10,12,46,18.00
2016,07,10,12,47,17.90
2016,07,10,12,48,17.90
2016,07,10,12,49,17.90
2016,07,10,12,50,17.90
2016,07,10,12,51,18.00
2016,07,10,12,52,18.10
2016,07,10,12,53,18.00
2016,07,10,12,54,18.00
2016,07,10,12,55,17.90
2016,07,10,12,56,17.80
2016,07,10,12,57,17.80
2016,07,10,12,58,17.80
2016,07,10,12,59,17.70
2016,07,10,13,00,17.70
2016,07,10,13,01,17.70
2016,07,10,13,02,17.70
2016,07,10,13,03,17.80
2016,07,10,13,04,17.80
2016,07,10,13,05,17.80
2016,07,10,13,06,17.90
2016,07,10,13,07,17.90
2016,07,10,13,08,18.00
2016,07,10,13,09,18.00
2016,07,10,13,10,17.90
2016,07,10,13,11,17.90
2016,07,10,13,12,17.90
2016,07,10,13,13,17.90
2016,07,10,13,14,17.90
2016,07,10,13,15,17.90
2016,07,10,13,16,18.00
2016,07,10,13,17,18.10
2016,07,10,13,18,18.30
2016,07,10,13,19,18.40
2016,07,10,13,20,18.40
2016,07,10,13,21,18.40
2016,07,10,13,22,18.50
2016,07,10,13,23,18.60
2016,07,10,13,24,18.60
2016,07,10,13,25,18.60
2016,07,10,13,26,18.60
2016,07,10,13,27,18.70
2016,07,10,13,28,18.70
2016,07,10,13,29,18.80
2016,07,10,13,30,18.90
2016,07,10,13,31,18.90
2016,07,10,13,32,19.00
2016,07,10,13,33,19.10
2016,07,10,13,34,19.20
2016,07,10,13,35,19.20
2016,07,10,13,36,19.20
2016,07,10,13,37,19.20
2016,07,10,13,38,19.30
2016,07,10,13,39,19.40
2016,07,10,13,40,19.50
2016,07,10,13,41,19.60
2016,07,10,13,42,19.60
2016,07,10,13,43,19.60
2016,07,10,13,44,19.60
2016,07,10,13,45,19.50
2016,07,10,13,46,19.50
2016,07,10,13,47,19.50
2016,07,10,13,48,19.50
2016,07,10,13,49,19.40
2016,07,10,13,50,19.40
2016,07,10,13,51,19.40
2016,07,10,13,52,19.40
2016,07,10,13,53,19.50
2016,07,10,13,54,19.60
2016,07,10,13,55,19.60
2016,07,10,13,56,19.60
2016,07,10,13,57,19.60
2016,07,10,13,58,19.50
2016,07,10,13,59,19.40
2016,07,10,14,00,19.40
2016,07,10,14,01,19.40
2016,07,10,14,02,19.40
2016,07,10,14,03,19.40
2016,07,10,14,04,19.50
2016,07,10,14,05,19.40
2016,07,10,14,06,19.40
2016,07,10,14,07,19.30
2016,07,10,14,08,19.30
2016,07,10,14,09,19.30
2016,07,10,14,10,19.30
2016,07,10,14,11,19.30
2016,07,10,14,12,19.30
2016,07,10,14,13,19.30
2016,07,10,14,14,19.30
2016,07,10,14,15,19.30
2016,07,10,14,16,19.30
2016,07,10,14,17,19.30
2016,07,10,14,18,19.30
2016,07,10,14,19,19.30
2016,07,10,14,20,19.30
2016,07,10,14,21,19.20
2016,07,10,14,22,19.20
2016,07,10,14,23,19.20
2016,07,10,14,24,19.20
2016,07,10,14,25,19.30
2016,07,10,14,26,19.40
2016,07,10,14,27,19.50
2016,07,10,14,28,19.50
2016,07,10,14,29,19.50
2016,07,10,14,30,19.50
2016,07,10,14,31,19.60
2016,07,10,14,32,19.60
2016,07,10,14,33,19.60
2016,07,10,14,34,19.60
2016,07,10,14,35,19.70
2016,07,10,14,36,19.70
2016,07,10,14,37,19.70
2016,07,10,14,38,19.80
2016,07,10,14,39,19.80
2016,07,10,14,40,19.90
2016,07,10,14,41,19.90
2016,07,10,14,42,20.00
2016,07,10,14,43,20.00
2016,07,10,14,44,20.10
2016,07,10,14,45,20.10
2016,07,10,14,46,20.00
2016,07,10,14,47,20.10
2016,07,10,14,48,20.10
2016,07,10,14,49,20.10
2016,07,10,14,50,20.00
2016,07,10,14,51,20.00
2016,07,10,14,52,20.00
2016,07,10,14,53,20.00
2016,07,10,14,54,20.00
2016,07,10,14,55,20.10
2016,07,10,14,56,20.20
2016,07,10,14,57,20.20
2016,07,10,14,58,20.20
2016,07,10,14,59,20.20
2016,07,10,15,00,20.20
2016,07,10,15,01,20.20
2016,07,10,15,02,20.10
2016,07,10,15,03,20.10
2016,07,10,15,04,20.10
2016,07,10,15,05,20.20
2016,07,10,15,06,20.20
2016,07,10,15,07,20.30
2016,07,10,15,08,20.30
2016,07,10,15,09,20.40
2016,07,10,15,10,20.50
2016,07,10,15,11,20.60
2016,07,10,15,12,20.60
2016,07,10,15,13,20.60
2016,07,10,15,14,20.70
2016,07,10,15,15,20.70
2016,07,10,15,16,20.70
2016,07,10,15,17,20.70
2016,07,10,15,18,20.70
2016,07,10,15,19,20.70
2016,07,10,15,20,20.70
2016,07,10,15,21,20.60
2016,07,10,15,22,20.50
2016,07,10,15,23,20.50
2016,07,10,15,24,20.40
2016,07,10,15,25,20.40
2016,07,10,15,26,20.40
2016,07,10,15,27,20.40
2016,07,10,15,28,20.30
2016,07,10,15,29,20.30
2016,07,10,15,30,20.30
2016,07,10,15,31,20.30
2016,07,10,15,32,20.20
2016,07,10,15,33,20.20
2016,07,10,15,34,20.20
2016,07,10,15,35,20.10
2016,07,10,15,36,20.10
2016,07,10,15,37,20.10
2016,07,10,15,38,20.10
2016,07,10,15,39,20.10
2016,07,10,15,40,20.10
2016,07,10,15,41,20.10
2016,07,10,15,42,20.10
2016,07,10,15,43,20.10
2016,07,10,15,44,20.10
2016,07,10,15,45,20.10
2016,07,10,15,46,20.00
2016,07,10,15,47,20.00
2016,07,10,15,48,20.00
2016,07,10,15,49,19.90
2016,07,10,15,50,19.90
2016,07,10,15,51,19.90
2016,07,10,15,52,19.90
2016,07,10,15,53,19.90
2016,07,10,15,54,19.90
2016,07,10,15,55,19.90
2016,07,10,15,56,19.90
2016,07,10,15,57,19.90
2016,07,10,15,58,19.90
2016,07,10,15,59,19.90
2016,07,10,16,00,19.90
2016,07,10,16,01,20.00
2016,07,10,16,02,20.00
2016,07,10,16,03,20.00
2016,07,10,16,04,20.00
2016,07,10,16,05,20.10
2016,07,10,16,06,20.10
2016,07,10,16,07,20.10
2016,07,10,16,08,20.10
2016,07,10,16,09,20.10
2016,07,10,16,10,20.20
2016,07,10,16,11,20.20
2016,07,10,16,12,20.20
2016,07,10,16,13,20.20
2016,07,10,16,14,20.10
2016,07,10,16,15,20.10
2016,07,10,16,16,20.10
2016,07,10,16,17,20.10
2016,07,10,16,18,20.10
2016,07,10,16,19,20.10
2016,07,10,16,20,20.10
2016,07,10,16,21,20.20
2016,07,10,16,22,20.20
2016,07,10,16,23,20.20
2016,07,10,16,24,20.30
2016,07,10,16,25,20.30
2016,07,10,16,26,20.40
2016,07,10,16,27,20.40
2016,07,10,16,28,20.40
2016,07,10,16,29,20.40
2016,07,10,16,30,20.40
2016,07,10,16,31,20.40
2016,07,10,16,32,20.50
2016,07,10,16,33,20.50
2016,07,10,16,34,20.50
2016,07,10,16,35,20.40
2016,07,10,16,36,20.40
2016,07,10,16,37,20.40
2016,07,10,16,38,20.50
2016,07,10,16,39,20.50
2016,07,10,16,40,20.50
2016,07,10,16,41,20.50
2016,07,10,16,42,20.50
2016,07,10,16,43,20.50
2016,07,10,16,44,20.50
2016,07,10,16,45,20.40
2016,07,10,16,46,20.40
2016,07,10,16,47,20.40
2016,07,10,16,48,20.40
2016,07,10,16,49,20.40
2016,07,10,16,50,20.40
2016,07,10,16,51,20.40
2016,07,10,16,52,20.30
2016,07,10,16,53,20.30
2016,07,10,16,54,20.30
2016,07,10,16,55,20.30
2016,07,10,16,56,20.30
2016,07,10,16,57,20.20
2016,07,10,16,58,20.20
2016,07,10,16,59,20.20
2016,07,10,17,00,20.20
2016,07,10,17,01,20.20
2016,07,10,17,02,20.20
2016,07,10,17,03,20.20
2016,07,10,17,04,20.20
2016,07,10,17,05,20.20
2016,07,10,17,06,20.20
2016,07,10,17,07,20.20
2016,07,10,17,08,20.10
2016,07,10,17,09,20.10
2016,07,10,17,10,20.10
2016,07,10,17,11,20.10
2016,07,10,17,12,20.10
2016,07,10,17,13,20.10
2016,07,10,17,14,20.10
2016,07,10,17,15,20.10
2016,07,10,17,16,20.10
2016,07,10,17,17,20.10
2016,07,10,17,18,20.10
2016,07,10,17,19,20.20
2016,07,10,17,20,20.20
2016,07,10,17,21,20.20
2016,07,10,17,22,20.20
2016,07,10,17,23,20.20
2016,07,10,17,24,20.20
2016,07,10,17,25,20.20
2016,07,10,17,26,20.20
2016,07,10,17,27,20.20
2016,07,10,17,28,20.20